DH0BRO-3 Weather Reports


time (UTC)temp
C
wind
direction
speed
KPH
gust
KPH
rain 1hr
cm
rain 24hr
cm
rain mn
cm
humidity
%
barometer
mb
20260507153609 10 157 1.6 4.8 0.00 0.00 0.00 82 1016.6
20260507152106 10 176 1.6 3.2 0.00 0.00 0.00 82 1016.5
20260507150604 10 172 1.6 3.2 0.00 0.00 0.00 82 1016.4
20260507145120 10 131 3.2 6.4 0.00 0.00 0.00 81 1016.3
20260507143558 10 114 3.2 9.7 0.00 0.00 0.00 81 1016.2
20260507142055 10 131 3.2 9.7 0.00 0.00 0.00 83 1016.2
20260507140551 10 90 3.2 11.3 0.00 0.00 0.00 83 1016.2
20260507135049 9 76 3.2 6.4 0.00 0.00 0.00 83 1016.1
20260507133547 9 73 3.2 9.7 0.00 0.00 0.00 83 1016.0
20260507132043 9 56 3.2 9.7 0.00 0.00 0.00 84 1015.8
20260507130559 8 51 3.2 9.7 0.00 0.00 0.00 84 1015.9
20260507125037 8 47 6.4 11.3 0.00 0.00 0.00 84 1015.8
20260507123534 8 48 6.4 12.9 0.00 0.00 0.00 85 1015.6
20260507122050 8 47 4.8 9.7 0.00 0.00 0.00 85 1015.6
20260507120527 8 50 6.4 12.9 0.00 0.00 0.00 86 1015.5
20260507115025 8 45 8.0 14.5 0.00 0.00 0.00 86 1015.5
20260507113522 8 43 4.8 9.7 0.00 0.00 0.00 86 1015.4
20260507112019 8 34 4.8 11.3 0.00 0.00 0.00 86 1015.2
20260507110516 8 41 8.0 16.1 0.00 0.00 0.00 86 1015.2
20260507105013 8 43 4.8 9.7 0.00 0.00 0.00 85 1015.1
20260507103509 8 56 4.8 11.3 0.00 0.00 0.00 84 1015.0
20260507102007 8 46 3.2 8.0 0.00 0.00 0.00 85 1014.9
20260507100504 8 61 4.8 16.1 0.00 0.00 0.00 85 1014.8
20260507094725 8 39 3.2 9.7 0.00 0.00 0.00 85 1014.5
20260507093222 8 36 3.2 9.7 0.00 0.00 0.00 85 1014.3
20260507091718 8 45 4.8 12.9 0.00 0.00 0.00 85 1014.1
20260507090215 8 60 3.2 11.3 0.00 0.00 0.00 85 1013.9
20260507084713 8 38 4.8 11.3 0.00 0.00 0.00 86 1013.8
20260507083210 8 48 6.4 14.5 0.00 0.00 0.00 86 1013.7
20260507081727 7 46 3.2 11.3 0.00 0.00 0.00 87 1013.5
20260507080204 7 41 6.4 12.9 0.00 0.00 0.00 87 1013.4
20260507075222 7 40 9.7 19.3 0.00 0.00 0.00 87 1013.2
20260507073659 7 45 4.8 11.3 0.00 0.00 0.00 87 1013.0
20260507072156 7 41 3.2 8.0 0.00 0.00 0.00 87 1012.9
20260507070652 7 45 6.4 17.7 0.00 0.00 0.00 88 1012.8
20260507065151 7 38 6.4 11.3 0.00 0.00 0.00 88 1012.8
20260507063647 7 42 4.8 11.3 0.00 0.00 0.00 88 1012.6
20260507062144 7 29 3.2 11.3 0.00 0.00 0.00 88 1012.4
20260507060641 7 33 3.2 6.4 0.00 0.00 0.00 87 1012.2
20260507055138 7 54 6.4 14.5 0.00 0.00 0.00 87 1012.1
20260507053655 7 55 4.8 9.7 0.00 0.00 0.00 87 1011.9
20260507052133 7 45 4.8 14.5 0.00 0.00 0.00 87 1011.8
20260507050628 7 41 6.4 14.5 0.00 0.00 0.00 88 1011.7
20260507045146 7 47 4.8 14.5 0.00 0.00 0.00 88 1011.6
20260507043623 7 34 3.2 9.7 0.00 0.00 0.00 88 1011.5
20260507042118 7 34 3.2 12.9 0.00 0.00 0.00 88 1011.3
20260507040636 7 32 6.4 16.1 0.00 0.00 0.00 88 1011.1
20260507035113 7 34 3.2 9.7 0.00 0.00 0.00 87 1011.3
20260507033610 7 21 3.2 8.0 0.00 0.00 0.00 87 1011.2
20260507032106 7 38 3.2 9.7 0.00 0.00 0.00 87 1011.0
20260507030603 7 32 4.8 11.3 0.00 0.00 0.00 87 1010.8
20260507025101 7 45 4.8 14.5 0.00 0.00 0.00 87 1010.9
20260507023617 7 41 3.2 8.0 0.00 0.00 0.00 87 1010.8
20260507022055 7 40 3.2 9.7 0.00 0.00 0.00 87 1010.6
20260507020552 7 39 3.2 11.3 0.00 0.00 0.00 87 1010.5
20260507015049 7 35 4.8 11.3 0.00 0.00 0.00 87 1010.6
20260507013545 7 47 6.4 11.3 0.00 0.00 0.00 87 1010.3
20260507012043 7 33 4.8 11.3 0.00 0.00 0.00 86 1010.4
20260507010539 8 45 8.0 17.7 0.00 0.00 0.00 86 1010.4
20260507005037 8 47 6.4 11.3 0.00 0.00 0.00 86 1010.4
20260507003534 9 50 8.0 17.7 0.00 0.00 0.00 86 1010.0
20260507002051 9 46 6.4 11.3 0.00 0.00 0.00 87 1009.8
20260507000528 10 32 3.2 11.3 0.00 0.00 0.00 87 1009.6
20260506235025 10 40 4.8 11.3 0.00 0.03 0.00 87 1009.6
20260506233542 10 48 4.8 11.3 0.00 0.05 0.00 87 1009.4
20260506232018 10 42 4.8 12.9 0.00 0.05 0.00 87 1009.4
20260506230516 10 37 3.2 9.7 0.00 0.05 0.00 87 1009.4
20260506225013 10 50 3.2 9.7 0.00 0.05 0.00 87 1009.4
20260506223509 10 51 4.8 11.3 0.00 0.05 0.00 86 1009.2
20260506222007 10 52 6.4 12.9 0.00 0.05 0.00 86 1009.1
20260506220524 10 59 6.4 11.3 0.00 0.05 0.00 87 1009.2
20260506214744 11 55 4.8 16.1 0.00 0.05 0.05 88 1009.3
20260506213241 11 53 1.6 3.2 0.00 0.05 0.05 87 1009.1
20260506211718 11 51 3.2 8.0 0.00 0.05 0.05 87 1009.0
20260506210215 11 55 3.2 14.5 0.00 0.05 0.05 87 1009.1
20260506204712 11 50 4.8 11.3 0.00 0.05 0.05 87 1008.8
20260506203209 11 51 4.8 11.3 0.00 0.05 0.05 87 1008.7
20260506201705 11 53 4.8 11.3 0.00 0.05 0.05 87 1008.7
20260506200203 11 47 4.8 11.3 0.00 0.05 0.05 87 1008.6
20260506195220 11 51 3.2 11.3 0.00 0.05 0.05 86 1008.6
20260506193718 11 51 3.2 9.7 0.00 0.05 0.05 86 1008.6
20260506192156 12 45 8.0 14.5 0.00 0.05 0.05 87 1008.4
20260506190652 12 54 6.4 11.3 0.00 0.05 0.05 87 1008.3
20260506185149 12 54 3.2 11.3 0.00 0.05 0.05 87 1008.0
20260506183646 12 52 3.2 9.7 0.00 0.05 0.05 87 1007.7
20260506182143 12 62 4.8 9.7 0.00 0.05 0.05 86 1007.5
20260506180640 12 53 6.4 14.5 0.00 0.05 0.05 86 1007.4
20260506175156 12 49 3.2 11.3 0.00 0.05 0.05 86 1007.4
20260506173634 12 51 4.8 9.7 0.00 0.05 0.05 86 1007.5
20260506172130 13 53 3.2 11.3 0.00 0.05 0.05 87 1007.3
20260506170628 13 51 4.8 11.3 0.00 0.05 0.05 87 1007.2
20260506165144 13 55 4.8 11.3 0.00 0.05 0.05 87 1007.1
20260506163622 13 55 6.4 11.3 0.00 0.05 0.05 86 1007.1
20260506162118 13 68 3.2 11.3 0.00 0.05 0.05 87 1007.1
20260506160616 13 57 4.8 14.5 0.00 0.05 0.05 87 1007.2
20260506155112 13 54 4.8 12.9 0.00 0.05 0.05 88 1007.1